CET,Max TemperatureF,Mean TemperatureF,Min TemperatureF,Max Dew PointF,MeanDew PointF,Min DewpointF,Max Humidity, Mean Humidity, Min Humidity, Max Sea Level PressureIn, Mean Sea Level PressureIn, Min Sea Level PressureIn, Max VisibilityMiles, Mean VisibilityMiles, Min VisibilityMiles, Max Wind SpeedMPH, Mean Wind SpeedMPH, Max Gust SpeedMPH,PrecipitationIn, CloudCover, Events, WindDirDegrees
2013-2-1,45,40,35,41,39,36,100,89,73,29.81,29.55,29.39,10,6,5,25,15,37,0.16,5,Rain,257
2013-2-2,43,39,35,38,34,30,100,81,56,30.04,29.73,29.42,19,7,6,24,11,36,0.01,3,Rain,333
2013-2-3,45,40,34,43,36,30,93,85,61,30.10,29.95,29.80,19,7,2,26,13,41,0.01,4,Rain,264
2013-2-4,48,46,43,45,40,34,100,80,56,29.80,29.75,29.68,12,6,2,28,20,36,0.02,4,Rain,257
2013-2-5,41,37,33,37,32,28,100,77,58,29.68,29.44,29.33,19,7,2,26,21,30,0.01,4,Rain-Snow-Thunderstorm,243
2013-2-6,41,36,32,36,33,30,100,88,70,29.74,29.51,29.27,16,6,1,16,11,26,0.01,4,Rain-Snow,358
2013-2-7,41,36,32,36,33,30,93,87,73,29.89,29.83,29.74,19,7,4,24,12,37,0.08,2,Rain-Snow,323
2013-2-8,40,35,30,34,30,27,100,86,49,30.09,29.98,29.86,19,6,2,18,7,,0.00,3,Rain-Snow-Thunderstorm,344
2013-2-9,36,30,25,32,30,26,100,94,74,30.12,30.07,29.95,11,5,1,12,5,,0.08,5,Rain-Snow,158
2013-2-10,33,31,28,32,27,19,100,83,63,29.96,29.77,29.59,17,6,1,18,13,,0.00,7,Rain-Snow,146
2013-2-11,33,30,26,23,20,18,80,67,47,29.77,29.61,29.53,19,10,6,20,17,,0.00,4,,91
2013-2-12,33,30,27,29,23,21,87,72,52,30.12,29.98,29.80,9,6,5,16,12,,0.00,4,Snow,61
2013-2-13,35,30,25,27,25,23,93,77,52,30.29,30.23,30.12,19,7,4,13,7,,0.00,3,,124
2013-2-14,35,32,28,34,26,21,100,84,60,30.22,29.97,29.83,6,3,1,23,15,,0.04,7,Fog-Rain-Snow,164
2013-2-15,45,38,32,41,38,34,100,94,82,30.16,30.02,29.89,8,4,0,13,7,,0.01,5,Fog-Rain,248
2013-2-16,46,42,39,43,40,37,100,93,79,30.27,30.21,30.15,16,5,2,8,5,,0.00,4,Fog-Rain,299
2013-2-17,45,39,33,39,34,30,100,85,66,30.28,30.24,30.21,9,5,2,9,6,,0.00,4,,91
2013-2-18,45,36,28,36,33,28,100,87,57,30.22,30.17,30.12,8,4,2,7,4,,0.00,3,Fog,43
2013-2-19,43,36,28,39,34,28,100,87,69,30.15,30.08,30.04,6,5,2,15,6,,0.01,6,Rain,331
2013-2-20,36,32,29,28,24,20,86,71,46,30.34,30.28,30.18,19,7,6,17,13,,0.00,4,,67
2013-2-21,36,31,26,25,22,16,86,67,43,30.34,30.27,30.21,19,7,6,16,11,,0.00,3,,58
2013-2-22,34,30,25,25,21,16,86,70,46,30.22,30.13,30.06,19,7,6,20,12,,0.00,4,,55
2013-2-23,33,29,25,25,21,16,75,67,51,30.12,30.08,30.06,16,6,4,23,14,30,0.00,6,Snow,44
2013-2-24,34,32,30,32,30,27,93,88,78,30.15,30.08,30.06,6,4,1,18,15,29,0.04,7,Rain-Snow,24
2013-2-25,37,35,33,35,33,32,93,90,85,30.33,30.23,30.15,4,3,2,18,13,29,0.00,8,Rain,35
2013-2-26,40,36,33,36,34,32,100,91,81,30.54,30.47,30.33,4,2,1,17,12,,0.00,7,,53
2013-2-27,37,34,32,32,30,28,93,85,67,30.55,30.51,30.48,6,4,2,17,13,,0.00,7,,50
2013-2-28,37,34,30,34,32,30,100,88,73,30.45,30.39,30.36,16,4,1,13,6,,0.00,7,,42